Location: Buchloe
(48.0161°N, 10.7316°E)
Time: 07:42:33
(UTC+02:00)

ISS - Pass Details

Date: 11 July 2025
Orbit: 413 x 417 km, 51.6° (Epoch: 16 July)

Event Time Altitude Azimuth Distance (km) Brightness Sun altitude
Rises 03:36:33 0° 290° (WNW) 2,357 -0.1 -13.7°
Reaches altitude 10° 03:38:48 10° 279° (W) 1,491 -1.2 -13.5°
Maximum altitude 03:41:46 30° 217° (SW) 778 -3.0 -13.3°
Drops below altitude 10° 03:44:44 10° 154° (SSE) 1,485 -1.3 -13.0°
Sets 03:46:57 0° 143° (SE) 2,345 -0.2 -12.8°
